Theta_e
325 333 344 346 346 345 345 346 345 343 342 341 341 341 341 340 340 340 339 338 337 337 337 338 338 341 342 339 339 340 340 341 340 340 341 341 340 338 337 336 336 334 337
326 331 342 346 346 346 345 344 344 343 343 343 344 344 344 344 343 342 341 340 339 338 337 337 336 337 340 343 341 341 339 340 340 340 341 342 341 340 338 338 336 333 339
323 327 334 342 343 344 344 342 344 344 344 344 343 343 344 344 344 344 344 343 342 341 340 339 338 336 338 341 341 340 338 341 340 338 339 334 332 340 340 339 337 337 340
320 322 328 337 339 340 340 341 341 340 340 341 342 342 341 340 340 341 342 342 343 342 342 343 342 339 339 340 340 340 339 340 339 337 332 332 332 337 340 341 339 337 338
315 319 325 333 334 334 334 335 334 334 336 335 335 335 334 334 334 335 335 336 338 340 342 342 342 342 341 341 340 340 341 340 338 335 329 328 327 331 337 339 339 339 339
312 316 324 328 328 328 328 328 327 326 325 324 323 323 323 323 323 324 325 325 326 328 331 333 336 336 337 339 340 340 341 341 338 331 328 328 329 335 338 339 342 339 338
307 311 315 323 323 323 323 322 322 321 320 319 318 318 318 318 318 318 319 320 320 321 322 323 324 325 328 331 335 337 338 337 334 329 328 327 326 334 337 338 340 340 338
304 308 311 318 320 319 318 318 318 318 317 316 315 315 315 315 315 315 315 315 317 318 319 319 319 320 321 321 322 325 328 330 330 329 328 326 328 334 336 336 339 340 339
302 301 304 308 314 317 316 315 315 314 314 313 313 313 314 314 313 313 313 314 316 317 317 317 318 317 318 318 318 320 322 324 324 328 330 328 329 336 337 336 339 340 339
298 300 299 303 305 304 306 314 314 314 312 311 312 313 313 311 312 312 312 314 314 314 315 315 316 315 315 315 315 315 317 319 320 324 329 329 333 336 338 337 338 339 339
297 297 297 300 301 300 300 306 311 312 312 313 309 311 306 302 303 304 310 312 312 312 313 313 313 313 312 310 311 312 313 307 308 311 319 326 333 336 338 338 339 339 339
293 295 296 296 297 298 303 300 300 303 302 302 301 301 302 301 302 304 304 308 309 310 310 311 311 310 306 301 301 306 302 302 302 304 308 316 319 326 335 336 337 337 339
293 294 295 296 296 296 297 297 297 298 297 299 299 300 300 300 299 299 298 298 298 304 300 302 301 301 300 300 300 299 300 300 300 302 305 311 314 317 323 329 335 339 338
292 294 295 295 295 296 295 296 296 297 295 297 297 300 298 297 297 297 297 297 297 298 298 298 298 299 299 300 300 300 300 299 300 301 302 309 311 314 317 320 324 329 335
292 293 294 294 294 295 295 295 295 295 296 296 296 299 298 297 296 297 296 296 296 297 297 297 297 298 298 299 300 300 300 300 299 301 301 307 309 312 315 317 319 322 327
294 294 295 294 294 295 294 294 294 294 295 295 296 297 299 298 296 296 296 296 296 297 297 297 297 297 297 298 298 299 299 299 300 300 301 301 307 309 312 314 316 318 320
295 296 294 295 294 294 294 294 294 295 296 294 295 297 298 299 297 296 295 295 295 296 297 296 296 297 296 297 296 298 298 298 299 299 300 300 302 306 308 311 313 315 317
295 295 296 298 295 293 293 293 294 295 294 294 295 296 298 299 298 295 295 294 295 296 296 295 295 294 294 294 295 295 296 297 298 298 299 299 300 300 303 307 309 311 313
295 296 296 295 294 294 293 293 293 293 294 294 295 295 298 299 298 295 295 295 296 295 294 294 293 293 292 292 293 293 293 294 295 297 297 298 298 300 300 304 307 308 309
296 296 296 295 294 293 293 292 292 293 293 294 294 296 297 297 297 295 294 294 295 294 293 293 292 292 291 290 292 292 292 293 294 294 295 298 298 298 299 300 300 301 306
294 294 294 293 293 293 291 290 291 291 293 293 294 297 297 297 297 295 294 294 294 293 292 292 292 290 289 290 288 289 289 291 292 292 293 294 294 296 297 297 296 298 300
293 294 294 294 292 294 293 292 292 291 292 293 295 296 297 296 296 295 294 293 293 291 291 290 290 289 289 289 286 286 284 287 291 292 292 292 292 294 294 295 295 295 296
293 293 294 294 293 294 293 293 292 292 292 292 293 294 295 296 296 295 294 293 292 291 289 289 289 288 286 288 288 286 283 282 286 289 291 291 291 291 292 293 294 294 296
293 292 294 294 294 294 294 293 291 290 290 291 292 293 294 295 294 295 294 292 291 290 289 288 290 288 287 285 287 290 288 289 285 283 287 289 291 290 290 290 292 293 294
292 292 294 294 294 294 294 294 291 290 291 291 291 292 292 293 294 293 293 291 290 289 288 288 287 287 287 286 285 285 286 288 288 285 282 284 287 288 289 289 289 289 292
291 292 293 293 293 293 294 292 291 290 291 290 290 290 290 291 291 291 292 290 289 288 288 288 287 287 286 286 286 286 286 286 285 285 284 284 284 286 288 289 288 288 289
Wind_Speed
3 3 1 9 9 8 7 5 6 4 3 3 3 4 4 3 3 3 2 2 3 4 4 5 7 9 4 4 4 4 4 4 3 3 3 4 4 4 3 2 3 3 5
7 3 6 10 10 9 8 7 6 4 2 1 4 6 6 6 6 5 4 3 3 3 4 5 5 6 6 6 4 5 5 4 4 6 6 5 5 5 5 5 5 5 10
7 5 5 9 10 11 10 9 9 8 7 7 6 6 8 8 9 7 6 5 5 5 5 5 6 6 6 7 5 4 4 3 3 4 5 2 4 9 9 8 8 8 9
8 5 5 7 9 10 11 10 9 8 7 6 6 9 11 9 8 9 9 9 9 6 7 7 7 6 4 4 4 5 5 5 4 5 3 4 5 10 12 14 12 11 11
7 5 5 9 11 10 9 9 9 9 9 9 8 9 8 9 9 9 9 9 10 11 11 10 10 10 8 6 6 7 7 6 7 5 4 5 5 9 15 16 13 12 12
7 6 7 10 10 10 10 10 9 9 9 9 8 7 7 7 8 8 8 8 8 8 7 8 10 9 10 10 9 10 10 9 8 5 5 6 6 12 16 16 14 13 12
6 6 5 10 10 10 10 9 9 9 9 8 7 7 7 7 8 7 7 9 9 9 9 10 10 10 10 11 11 11 11 11 7 6 6 6 6 15 16 16 16 14 16
9 6 5 7 9 9 9 9 9 9 9 8 7 8 7 7 7 7 7 8 9 9 10 11 11 11 12 13 13 13 13 11 8 6 6 6 10 17 19 19 18 16 17
7 7 5 5 7 9 10 9 9 8 8 7 8 7 7 6 7 8 8 10 10 10 10 10 10 10 12 14 13 12 11 11 7 5 7 6 11 19 21 21 19 18 17
7 7 6 5 6 6 5 8 8 8 7 6 6 7 8 8 9 9 9 10 10 10 10 9 11 12 12 13 14 15 13 9 6 6 7 6 15 21 22 22 20 19 19
5 7 7 7 6 6 6 5 7 6 6 6 5 7 6 4 5 6 8 9 10 10 10 10 11 12 12 11 14 15 12 3 5 4 5 14 17 20 22 23 23 22 21
8 7 7 7 7 6 4 5 4 3 3 3 3 3 3 4 3 4 5 8 9 9 10 11 11 12 9 4 4 9 4 5 4 5 5 15 21 22 22 23 23 24 22
8 6 8 7 7 6 4 3 2 2 2 2 3 3 3 2 3 3 3 3 4 6 4 5 5 4 6 4 4 4 5 5 3 4 8 17 19 21 23 24 25 24 23
8 9 9 8 7 7 4 4 4 3 3 2 2 4 3 2 3 3 3 4 3 3 5 4 3 5 6 6 6 6 6 4 4 4 6 14 19 21 23 24 26 27 26
9 9 10 9 8 6 6 4 4 4 3 4 2 3 3 2 1 2 2 3 3 4 3 4 4 4 5 6 6 6 7 7 7 5 4 13 18 22 23 24 25 26 29
12 12 11 10 9 7 6 6 5 4 4 3 3 4 4 3 2 0 1 2 3 3 3 4 4 4 4 4 6 6 7 7 8 8 6 7 17 22 23 24 25 26 27
13 14 13 12 8 8 8 6 4 4 4 4 3 4 5 4 3 2 1 2 3 4 5 4 4 4 4 4 6 7 7 8 8 9 8 7 9 16 21 23 25 26 27
13 16 13 11 10 9 7 6 4 4 4 4 3 3 4 4 3 3 1 2 2 3 3 3 3 4 4 4 6 7 7 7 10 10 9 8 8 8 12 20 23 25 26
16 16 14 10 12 9 7 5 5 5 4 4 3 3 5 5 4 3 1 2 3 3 3 4 3 3 4 6 7 8 8 8 8 9 10 9 9 9 8 15 21 22 26
15 15 14 11 10 9 5 4 3 2 2 3 4 4 5 3 5 3 1 2 3 3 4 4 4 2 3 4 8 8 8 7 7 6 8 7 7 9 8 9 9 9 19
14 14 15 13 10 8 3 4 2 3 2 2 3 5 5 4 4 3 2 2 2 3 3 4 3 5 3 4 4 6 4 7 6 4 5 4 7 8 7 5 6 7 9
17 16 14 15 12 9 6 4 3 4 3 2 3 4 5 5 4 3 4 2 0 0 3 3 4 3 3 4 3 3 7 5 2 14 10 6 7 8 8 8 10 13 12
18 16 15 15 13 11 8 4 3 4 2 1 2 3 3 4 4 3 4 4 2 1 1 2 2 2 3 2 2 0 5 4 16 1 14 7 5 4 10 13 12 15 10
17 13 14 15 14 10 11 7 6 5 5 4 4 3 4 4 3 4 4 4 3 2 1 2 1 1 1 4 3 2 4 6 5 15 2 1 12 9 12 11 11 12 13
15 16 15 15 14 11 12 10 7 5 4 3 3 5 4 2 3 3 4 4 4 2 2 3 3 2 2 3 3 2 4 6 9 9 20 17 13 10 10 12 12 12 12
12 14 14 15 14 12 13 11 11 10 7 5 4 4 4 3 3 3 4 4 4 3 2 2 3 3 4 4 4 4 7 7 9 10 13 19 22 15 12 11 9 10 12
Wind_Direction
181 172 115 137 129 118 113 144 169 168 190 218 244 252 253 258 264 259 277 309 338 344 342 345 344 351 7 325 303 322 326 296 292 249 247 211 194 195 184 183 215 203 258
129 115 71 113 120 116 120 115 118 113 140 231 283 267 257 258 261 259 261 264 271 301 319 324 332 337 345 318 296 292 314 324 332 321 290 260 244 229 225 208 224 238 205
117 106 77 102 99 98 105 109 100 96 91 82 71 57 61 46 41 2 268 268 271 279 298 311 319 326 341 343 297 279 285 295 303 316 313 297 289 281 262 232 221 226 204
120 96 86 89 111 101 93 90 92 89 76 64 73 64 51 47 43 35 35 29 24 337 300 303 301 304 314 313 312 251 265 269 279 288 301 279 274 274 270 259 231 224 221
110 106 109 117 115 114 111 106 97 91 83 72 47 58 59 58 52 49 41 30 19 16 11 3 5 352 323 304 288 276 259 250 253 251 254 261 266 273 273 281 245 233 224
117 118 123 126 124 124 118 111 103 91 85 81 75 75 72 68 61 54 49 39 32 26 15 3 5 348 336 342 320 298 277 256 249 243 249 257 260 268 276 279 252 235 223
133 129 129 132 128 123 115 107 101 99 95 94 91 84 76 67 60 54 48 30 23 14 8 2 356 352 345 340 329 320 327 315 274 254 250 247 252 270 275 279 274 237 224
142 141 131 128 126 124 121 117 113 115 106 90 88 84 75 59 57 48 37 26 25 17 9 4 358 355 349 343 337 329 325 321 312 272 250 249 252 266 272 276 274 262 234
136 132 140 136 132 132 132 128 129 116 107 96 79 68 70 64 48 38 24 21 23 19 11 11 7 1 352 345 342 345 333 321 307 285 269 252 251 264 269 271 273 265 238
149 146 156 157 155 148 158 150 137 130 117 98 73 66 57 50 42 33 28 15 25 14 12 11 4 359 358 357 347 341 339 338 331 314 291 268 262 266 268 269 269 272 249
159 169 171 175 185 179 174 178 160 152 141 107 72 64 51 46 32 34 16 22 12 9 8 6 358 360 355 351 343 340 342 328 325 312 309 300 286 281 273 271 270 266 263
184 188 179 180 188 184 193 165 166 169 144 133 111 81 65 56 31 36 15 14 7 4 356 358 357 353 353 338 332 335 324 318 315 307 298 303 304 302 294 279 274 270 265
181 176 185 186 184 177 166 171 162 162 131 135 137 122 83 61 26 13 5 1 356 3 345 354 352 337 329 317 312 301 299 303 296 299 296 300 301 298 295 291 295 278 268
181 186 188 190 181 186 170 170 169 154 152 157 180 134 107 59 23 0 6 347 348 350 340 352 336 325 328 327 317 311 303 291 283 284 277 283 293 296 293 289 285 286 284
189 188 191 181 185 181 182 175 168 175 164 170 154 148 133 124 73 9 343 342 343 343 343 332 329 324 323 320 312 305 302 296 285 283 275 280 286 293 293 291 289 286 283
190 191 188 188 184 173 180 180 182 169 174 153 161 177 161 154 138 134 330 340 337 331 319 324 325 330 319 315 307 295 288 279 279 275 275 279 282 288 289 289 288 285 282
193 186 189 186 181 180 182 185 175 187 160 169 174 173 166 153 154 138 9 351 324 323 326 342 335 334 317 314 294 294 288 281 284 280 280 277 282 280 281 286 288 287 286
181 188 185 184 180 180 178 178 182 182 167 174 177 165 167 153 149 119 85 315 318 336 342 345 341 323 316 318 308 300 292 292 288 285 279 277 275 278 284 285 287 287 286
185 182 184 178 177 180 174 168 178 174 174 184 161 163 179 159 141 128 100 328 4 360 358 349 330 335 322 321 313 304 294 286 289 286 285 279 276 277 280 283 286 285 286
186 184 180 178 175 171 153 143 147 160 189 179 179 173 177 168 143 121 81 23 19 7 355 346 315 310 282 303 308 295 279 280 276 278 281 285 288 287 285 284 289 291 289
184 182 181 170 179 157 139 144 147 188 191 183 190 168 178 162 148 141 120 46 18 23 345 331 317 323 327 331 314 301 284 271 273 289 274 285 296 287 277 294 303 307 312
187 191 180 180 174 174 159 161 162 155 189 171 179 162 185 156 178 172 142 145 108 19 352 351 17 322 310 20 339 304 333 329 11 312 283 280 281 291 304 313 301 304 302
191 189 183 177 175 178 160 129 98 81 65 124 196 145 194 166 188 177 158 160 180 158 336 335 314 6 311 324 42 234 336 313 330 277 294 280 280 304 301 296 288 293 291
191 181 178 178 177 178 163 163 167 167 167 204 172 156 163 180 199 181 177 167 171 165 266 273 269 243 225 285 310 221 222 279 314 315 358 343 304 308 305 298 297 298 300
174 179 182 177 180 174 174 175 172 172 171 156 152 157 152 187 200 190 174 160 170 177 223 246 280 268 227 245 227 293 263 268 258 257 288 302 295 291 297 290 283 287 290
172 177 175 177 183 174 176 177 179 184 174 170 175 183 170 194 211 206 172 172 185 190 216 260 268 262 259 248 243 251 267 280 286 275 276 292 296 303 293 290 292 290 287